Peru, IN

3:39 AM EST on November 21, 2017 (GMT -0500)
Grissom Air Reserve Base

Weather History for KGUS - September, 2013

Change the Weather History Date:

Friday, September 20, 2013

  Actual Average Record
Temperature  
Mean Temperature 70 °F -  
Max Temperature 77 °F 72 °F 88 °F (2017)
Min Temperature 64 °F 51 °F 44 °F (2003)
Cooling Degree Days 6    
Growing Degree Days 20 (Base 50)    
Moisture  
Dew Point 68 °F    
Average Humidity 89    
Maximum Humidity 100    
Minimum Humidity 70    
Precipitation  
Precipitation 0.26 in - - ()
Sea Level Pressure  
Sea Level Pressure 29.85 in    
Wind  
Wind Speed 11 mph (WSW)    
Max Wind Speed 16 mph    
Max Gust Speed -    
Visibility 10 miles    
Events Rain    
Averages and records for this station are not official NWS values.
T = Trace of Precipitation, MM = Missing Value Source: NWS Daily Summary

Daily Weather History Graph

Daily Weather History Graph

Search for Another Location

Airport or City:

Trip Planner

Search our weather history database for the weather conditions in past years. The results will help you decide how hot, cold, wet, or windy it might be!

Date:

Astronomy

Sep. 20, 2013 Rise Set
Actual Time 7:30 AM EDT 7:44 PM EDT
Civil Twilight 7:03 AM EDT 8:11 PM EDT
Nautical Twilight 6:31 AM EDT 8:43 PM EDT
Astronomical Twilight 5:58 AM EDT 9:16 PM EDT
Moon 8:17 PM EDT (9/20) 8:45 AM EDT (9/20)
Length of Visible Light 13h 08m
Length of Day
12h 14m
Full, 98% of the Moon is Illuminated
Sep 20
Full
Sep 26
Last Quarter
Oct 4
New
Oct 11
First Quarter
Oct 18
Full

Hourly Weather History & Observations

Time (EDT) Temp. Dew Point Humidity Pressure Visibility Wind Dir Wind Speed Gust Speed Precip Events Conditions
12:58 AM 73.6 °F 71.8 °F 94% 29.93 in 10.0 mi SSW 12.7 mph - N/A   Clear
1:58 AM 73.2 °F 71.8 °F 95% 29.93 in 10.0 mi SSW 12.7 mph - N/A   Partly Cloudy
2:58 AM 72.5 °F 71.6 °F 97% 29.89 in 10.0 mi SSW 11.5 mph - N/A   Clear
3:58 AM 72.5 °F 71.6 °F 97% 29.88 in 10.0 mi SSW 11.5 mph - N/A   Partly Cloudy
4:58 AM 72.7 °F 71.2 °F 95% 29.89 in 10.0 mi SW 9.2 mph - N/A   Scattered Clouds
5:18 AM 73.4 °F 71.6 °F 94% 29.89 in 10.0 mi SW 10.4 mph - N/A   Mostly Cloudy
5:23 AM 73.4 °F 71.6 °F 94% 29.89 in 10.0 mi SSW 10.4 mph - N/A   Mostly Cloudy
5:58 AM 71.8 °F 71.2 °F 98% 29.88 in 10.0 mi South 9.2 mph - N/A   Scattered Clouds
6:58 AM 71.4 °F 70.9 °F 98% 29.87 in 10.0 mi South 10.4 mph - N/A   Scattered Clouds
7:58 AM 71.1 °F 70.5 °F 98% 29.87 in 10.0 mi SSW 11.5 mph - N/A   Partly Cloudy
8:58 AM 72.7 °F 70.0 °F 91% 29.88 in 10.0 mi SW 12.7 mph - N/A   Partly Cloudy
9:38 AM 73.4 °F 69.8 °F 88% 29.89 in 10.0 mi WSW 13.8 mph - N/A   Mostly Cloudy
9:43 AM 73.4 °F 69.8 °F 88% 29.89 in 10.0 mi WSW 13.8 mph - N/A   Mostly Cloudy
9:55 AM 75.2 °F 69.8 °F 83% 29.89 in 10.0 mi WSW 16.1 mph - N/A   Mostly Cloudy
9:58 AM 74.8 °F 70.3 °F 86% 29.88 in 10.0 mi WSW 13.8 mph - N/A   Mostly Cloudy
10:18 AM 75.2 °F 69.8 °F 83% 29.88 in 10.0 mi SW 13.8 mph - N/A   Mostly Cloudy
10:23 AM 75.2 °F 69.8 °F 83% 29.88 in 10.0 mi SW 12.7 mph - N/A   Mostly Cloudy
10:30 AM 75.2 °F 69.8 °F 83% 29.87 in 10.0 mi WSW 9.2 mph - N/A   Mostly Cloudy
10:58 AM 76.1 °F 69.4 °F 80% 29.88 in 10.0 mi SW 11.5 mph - N/A   Scattered Clouds
11:13 AM 77.0 °F 69.8 °F 78% 29.88 in 10.0 mi WSW 10.4 mph - N/A   Mostly Cloudy
11:28 AM 77.0 °F 68.0 °F 74% 29.88 in 10.0 mi WSW 12.7 mph - N/A   Mostly Cloudy
11:58 AM 75.0 °F 67.6 °F 78% 29.89 in 10.0 mi WSW 13.8 mph - N/A   Overcast
12:58 PM 75.0 °F 66.7 °F 75% 29.88 in 10.0 mi WSW 8.1 mph - N/A   Overcast
1:36 PM 73.4 °F 68.0 °F 83% 29.86 in 10.0 mi West 6.9 mph - N/A   Light Drizzle
1:53 PM 75.2 °F 66.2 °F 73% 29.85 in 10.0 mi WSW 6.9 mph - N/A   Scattered Clouds
1:58 PM 75.2 °F 66.2 °F 73% 29.85 in 10.0 mi WSW 8.1 mph - 0.00 in   Partly Cloudy
2:58 PM 77.5 °F 66.9 °F 70% 29.83 in 10.0 mi WSW 9.2 mph - N/A   Scattered Clouds
3:38 PM 75.2 °F 66.2 °F 73% 29.82 in 10.0 mi West 11.5 mph - N/A   Mostly Cloudy
3:48 PM 75.2 °F 66.2 °F 73% 29.82 in 10.0 mi WSW 13.8 mph - N/A   Mostly Cloudy
3:58 PM 75.4 °F 66.6 °F 74% 29.81 in 10.0 mi WSW 10.4 mph - N/A   Partly Cloudy
4:58 PM 74.3 °F 66.2 °F 76% 29.81 in 10.0 mi WSW 11.5 mph - N/A   Partly Cloudy
5:00 PM 73.4 °F 66.2 °F 78% 29.82 in 10.0 mi WSW 10.4 mph - N/A   Light Drizzle
5:58 PM 71.1 °F 69.4 °F 95% 29.82 in 10.0 mi West 10.4 mph - 0.00 in Rain Light Rain
6:58 PM 69.3 °F 69.3 °F 100% 29.81 in 10.0 mi WSW 6.9 mph - 0.02 in Rain Light Rain
7:58 PM 68.4 °F 68.4 °F 100% 29.81 in 10.0 mi WSW 9.2 mph - 0.03 in Rain Light Rain
8:21 PM 68.0 °F 68.0 °F 100% 29.81 in 5.0 mi WSW 9.2 mph - N/A Rain Heavy Rain
8:58 PM 67.3 °F 67.3 °F 100% 29.81 in 10.0 mi SW 8.1 mph - 0.20 in   Light Drizzle
8:59 PM 68.0 °F 68.0 °F 100% 29.81 in 10.0 mi SW 9.2 mph - N/A   Overcast
9:31 PM 68.0 °F 68.0 °F 100% 29.82 in 10.0 mi WSW 8.1 mph - N/A   Light Drizzle
9:58 PM 67.1 °F 67.1 °F 100% 29.81 in 10.0 mi WSW 6.9 mph - 0.01 in   Overcast
10:06 PM 68.0 °F 68.0 °F 100% 29.81 in 10.0 mi WSW 6.9 mph - N/A   Light Drizzle
10:51 PM 68.0 °F 68.0 °F 100% 29.81 in 6.0 mi West 8.1 mph - N/A   Light Drizzle
10:58 PM 67.3 °F 67.3 °F 100% 29.81 in 6.0 mi West 9.2 mph - 0.00 in   Light Drizzle
11:07 PM 66.2 °F 66.2 °F 100% 29.81 in 10.0 mi WNW 15.0 mph - N/A   Overcast
11:08 PM 66.2 °F 66.2 °F 100% 29.81 in 10.0 mi NW 16.1 mph - N/A   Overcast
11:13 PM 66.2 °F 66.2 °F 100% 29.81 in 10.0 mi NW 15.0 mph - N/A   Overcast
11:15 PM 66.2 °F 64.4 °F 94% 29.81 in 10.0 mi NW 13.8 mph - N/A   Overcast
11:20 PM 66.2 °F 60.8 °F 83% 29.81 in 10.0 mi NW 11.5 mph - N/A   Overcast
11:55 PM 64.4 °F 60.8 °F 88% 29.82 in 10.0 mi NW 10.4 mph - N/A   Overcast
11:58 PM 64.4 °F 60.8 °F 88% 29.82 in 10.0 mi NW 10.4 mph - 0.00 in   Overcast